Location: Breitenfeld
(46.8500°N, 15.6333°E)
Time: 18:39:20
(UTC+00:00)

Cosmos 1980 Rocket - Pass Details

Date: 09 April 2020
Orbit: 828 x 851 km, 71.0° (Epoch: 01 June)

Event Time Altitude Azimuth Distance (km) Brightness Sun altitude
Rises 19:53:59 0° 338° (NNW) 3,387 6.4 -21.6°
Reaches altitude 10° 19:56:44 10° 349° (N) 2,453 5.3 -21.9°
Maximum altitude 20:01:38 30° 50° (NE) 1,467 3.3 -22.5°
Enters shadow 20:02:47 28° 71° (ENE) 1,537 3.3 -22.7°
